Fernandina Beach, FL

7:35 PM EST on December 05, 2019 (GMT -0500)
Fernandina Beach

Weather History for KFHB - October, 2019

Change the Weather History Date:

Saturday, October 19, 2019

  Actual Average (KNRB) Record (KNRB)
Temperature  
Mean Temperature 74 °F -  
Max Temperature 80 °F 76 °F 88 °F (2007)
Min Temperature 69 °F 64 °F 51 °F (1996)
Cooling Degree Days 10    
Growing Degree Days 24 (Base 50)    
Moisture  
Dew Point 72 °F    
Average Humidity 88    
Maximum Humidity 99    
Minimum Humidity 75    
Precipitation  
Precipitation 0.50 in - - ()
Sea Level Pressure  
Sea Level Pressure 29.81 in    
Wind  
Wind Speed 15 mph (SSE)    
Max Wind Speed 23 mph    
Max Gust Speed 37 mph    
Visibility 9 miles    
Events Rain    
Averages and records for this station are not official NWS values.
T = Trace of Precipitation, MM = Missing Value Source: NWS Daily Summary

Daily Weather History Graph

Daily Weather History Graph

Search for Another Location

Airport or City:

Astronomy

Oct. 19, 2019 Rise Set
Actual Time 7:30 AM EDT 6:50 PM EDT
Civil Twilight 7:06 AM EDT 7:14 PM EDT
Nautical Twilight 6:38 AM EDT 7:42 PM EDT
Astronomical Twilight 6:10 AM EDT 8:10 PM EDT
Moon 11:14 PM EDT (10/19) 12:45 PM EDT (10/19)
Length of Visible Light 12h 08m
Length of Day
11h 19m
Waning Gibbous, 70% of the Moon is Illuminated
Oct 19
Waning Gibbous
Oct 21
Last Quarter
Oct 27
New
Nov 4
First Quarter
Nov 12
Full

Hourly Weather History & Observations

Time (EDT) Temp. Heat Index Dew Point Humidity Pressure Visibility Wind Dir Wind Speed Gust Speed Precip Events Conditions
12:15 AM 75.2 °F - 66.9 °F 75% 29.93 in 10.0 mi ESE 12.7 mph 17.3 mph N/A Rain Light Rain
12:35 AM 74.8 °F - 67.6 °F 78% 29.92 in 10.0 mi ESE 11.5 mph 19.6 mph N/A Rain Light Rain
12:55 AM 74.8 °F - 67.5 °F 78% 29.92 in 10.0 mi ESE 13.8 mph 19.6 mph N/A Rain Light Rain
1:15 AM 74.7 °F - 67.5 °F 78% 29.91 in 10.0 mi ESE 16.1 mph 20.7 mph N/A Rain Light Rain
1:35 AM 74.5 °F - 67.3 °F 78% 29.91 in 10.0 mi ESE 16.1 mph 23.0 mph N/A Rain Light Rain
1:55 AM 73.4 °F - 67.8 °F 83% 29.91 in 10.0 mi ESE 15.0 mph 20.7 mph N/A Rain Light Rain
2:15 AM 73.2 °F - 68.0 °F 84% 29.90 in 10.0 mi ESE 15.0 mph 20.7 mph N/A Rain Light Rain
2:35 AM 72.9 °F - 68.0 °F 85% 29.90 in 10.0 mi SE 16.1 mph 21.9 mph N/A Rain Light Rain
2:55 AM 72.9 °F - 66.4 °F 80% 29.90 in 10.0 mi ESE 13.8 mph 25.3 mph N/A Rain Light Rain
3:15 AM 73.0 °F - 66.2 °F 79% 29.90 in 10.0 mi ESE 15.0 mph 21.9 mph N/A Rain Light Rain
3:35 AM 72.7 °F - 67.6 °F 84% 29.90 in 10.0 mi ESE 16.1 mph 19.6 mph N/A Rain Light Rain
3:55 AM 72.5 °F - 68.2 °F 86% 29.90 in 10.0 mi SE 13.8 mph 23.0 mph N/A Rain Light Rain
4:15 AM 72.1 °F - 67.6 °F 86% 29.89 in 10.0 mi SE 16.1 mph 23.0 mph N/A Rain Light Rain
4:35 AM 73.2 °F - 67.6 °F 83% 29.88 in 10.0 mi ESE 16.1 mph 20.7 mph N/A Rain Light Rain
4:55 AM 72.0 °F - 68.4 °F 88% 29.89 in 7.0 mi SE 15.0 mph 20.7 mph 0.01 in Rain Rain
5:15 AM 70.9 °F - 68.0 °F 91% 29.89 in 10.0 mi SE 12.7 mph - 0.02 in Rain Light Rain
5:35 AM 71.1 °F - 69.3 °F 94% 29.87 in 10.0 mi SE 15.0 mph 27.6 mph 0.03 in Rain Light Rain
5:55 AM 69.8 °F - 68.0 °F 94% 29.88 in 7.0 mi ESE 15.0 mph - 0.05 in Rain Light Rain
6:15 AM 70.3 °F - 69.1 °F 96% 29.89 in 10.0 mi ESE 15.0 mph 23.0 mph 0.01 in Rain Light Rain
6:35 AM 71.2 °F - 70.0 °F 96% 29.89 in 10.0 mi SE 11.5 mph 19.6 mph 0.02 in Rain Light Rain
6:55 AM 71.4 °F - 69.4 °F 93% 29.89 in 10.0 mi ESE 16.1 mph 20.7 mph 0.03 in Rain Light Rain
7:15 AM 71.2 °F - 69.3 °F 93% 29.90 in 7.0 mi SE 13.8 mph 20.7 mph 0.02 in Rain Rain
7:35 AM 71.4 °F - 69.8 °F 95% 29.89 in 7.0 mi ESE 15.0 mph - 0.06 in Rain Rain
7:55 AM 71.8 °F - 70.0 °F 94% 29.87 in 7.0 mi SE 17.3 mph 26.5 mph 0.09 in Rain Light Rain
8:15 AM 71.6 °F - 69.8 °F 94% 29.88 in 10.0 mi ESE 16.1 mph 24.2 mph N/A   Overcast
8:35 AM 72.0 °F - 69.4 °F 92% 29.89 in 10.0 mi SE 18.4 mph 27.6 mph 0.01 in Rain Light Rain
8:55 AM 72.9 °F - 70.5 °F 92% 29.88 in 10.0 mi ESE 16.1 mph 25.3 mph 0.01 in   Mostly Cloudy
9:15 AM 73.9 °F - 71.6 °F 92% 29.87 in 10.0 mi SE 17.3 mph 24.2 mph N/A   Overcast
9:35 AM 73.9 °F - 72.0 °F 93% 29.87 in 5.0 mi ESE 16.1 mph 26.5 mph 0.01 in Rain Light Rain
10:15 AM 74.8 °F - 73.0 °F 94% 29.87 in 7.0 mi SE 17.3 mph 27.6 mph N/A   Light Drizzle
10:35 AM 74.8 °F - 72.7 °F 93% 29.87 in 10.0 mi SE 19.6 mph 29.9 mph N/A   Overcast
10:55 AM 75.4 °F - 73.0 °F 92% 29.86 in 7.0 mi SE 16.1 mph 27.6 mph N/A   Overcast
11:15 AM 74.5 °F - 73.4 °F 96% 29.86 in 2.5 mi ESE 15.0 mph 24.2 mph 0.07 in Rain Heavy Rain
11:35 AM 74.1 °F - 73.8 °F 99% 29.85 in 1.5 mi South 11.5 mph 23.0 mph 0.26 in Rain Heavy Rain
11:55 AM 75.0 °F - 74.1 °F 97% 29.85 in 7.0 mi SSE 17.3 mph 23.0 mph 0.27 in   Overcast
12:15 PM 76.8 °F - 75.6 °F 96% 29.84 in 5.0 mi SSE 15.0 mph 21.9 mph N/A   Overcast
12:35 PM 77.4 °F - 75.9 °F 95% 29.82 in 5.0 mi SSE 17.3 mph 25.3 mph 0.02 in   Overcast
12:55 PM 77.5 °F - 75.0 °F 92% 29.82 in 10.0 mi South 17.3 mph 23.0 mph 0.02 in   Overcast
1:15 PM 77.5 °F - 74.1 °F 89% 29.81 in 7.0 mi South 19.6 mph 27.6 mph N/A   Overcast
1:35 PM 77.2 °F - 75.0 °F 93% 29.79 in 7.0 mi SSE 17.3 mph 26.5 mph N/A   Overcast
1:55 PM 76.6 °F - 74.7 °F 94% 29.78 in 5.0 mi SSE 21.9 mph 31.1 mph N/A Rain Light Rain
2:15 PM 77.4 °F - 74.8 °F 92% 29.76 in 10.0 mi SSE 20.7 mph 27.6 mph N/A   Overcast
2:35 PM 78.8 °F - 74.8 °F 88% 29.74 in 10.0 mi SSE 18.4 mph 25.3 mph N/A   Mostly Cloudy
2:55 PM 79.2 °F - 73.9 °F 84% 29.74 in 10.0 mi SSE 23.0 mph 36.8 mph 0.01 in   Mostly Cloudy
3:10 PM 78.3 °F - 74.1 °F 87% 29.74 in 7.0 mi SSE 19.6 mph 26.5 mph N/A   Overcast
3:35 PM 78.1 °F - 72.5 °F 83% 29.73 in 10.0 mi South 19.6 mph 28.8 mph N/A   Overcast
3:55 PM 79.5 °F - 73.0 °F 80% 29.72 in 10.0 mi SSE 16.1 mph 23.0 mph N/A   Overcast
4:15 PM 78.8 °F - 72.5 °F 81% 29.72 in 10.0 mi South 18.4 mph 28.8 mph N/A   Overcast
4:35 PM 80.1 °F 84.2 °F 73.0 °F 79% 29.71 in 10.0 mi SSE 17.3 mph 25.3 mph N/A   Overcast
4:55 PM 78.8 °F - 72.9 °F 82% 29.71 in 10.0 mi South 16.1 mph 23.0 mph N/A   Mostly Cloudy
5:15 PM 79.0 °F - 73.9 °F 84% 29.70 in 10.0 mi South 20.7 mph 28.8 mph N/A   Overcast
5:35 PM 79.0 °F - 74.3 °F 85% 29.70 in 10.0 mi South 16.1 mph 24.2 mph N/A   Mostly Cloudy
5:55 PM 78.3 °F - 74.1 °F 87% 29.70 in 10.0 mi SSE 11.5 mph 19.6 mph N/A   Scattered Clouds
6:35 PM 78.3 °F - 75.0 °F 90% 29.70 in 10.0 mi SSE 13.8 mph - N/A   Overcast
7:15 PM 78.3 °F - 75.4 °F 91% 29.70 in 10.0 mi SSE 17.3 mph 21.9 mph N/A   Overcast
7:35 PM 78.4 °F - 75.4 °F 90% 29.70 in 10.0 mi SSE 17.3 mph 25.3 mph N/A   Overcast
7:55 PM 78.4 °F - 75.4 °F 90% 29.70 in 10.0 mi South 15.0 mph 23.0 mph N/A   Overcast
8:15 PM 78.3 °F - 75.6 °F 91% 29.71 in 7.0 mi South 17.3 mph 25.3 mph N/A   Overcast
8:35 PM 78.4 °F - 75.2 °F 90% 29.71 in 10.0 mi South 12.7 mph - N/A   Overcast
8:55 PM 78.1 °F - 74.3 °F 88% 29.70 in 10.0 mi South 17.3 mph 23.0 mph N/A   Scattered Clouds
9:15 PM 78.1 °F - 73.8 °F 86% 29.70 in 10.0 mi South 13.8 mph - N/A   Scattered Clouds
9:35 PM 77.7 °F - 73.8 °F 88% 29.70 in 10.0 mi South 17.3 mph - N/A   Scattered Clouds
9:55 PM 77.5 °F - 74.1 °F 89% 29.71 in 10.0 mi South 16.1 mph 20.7 mph N/A   Clear
10:15 PM 78.1 °F - 74.3 °F 88% 29.70 in 10.0 mi South 17.3 mph - N/A   Scattered Clouds
10:35 PM 78.3 °F - 74.3 °F 88% 29.71 in 10.0 mi South 17.3 mph 26.5 mph N/A   Mostly Cloudy
10:55 PM 78.3 °F - 74.3 °F 88% 29.72 in 10.0 mi SSW 19.6 mph - N/A   Overcast
11:15 PM 78.3 °F - 74.3 °F 88% 29.73 in 10.0 mi SSW 21.9 mph 26.5 mph N/A   Overcast
11:35 PM 77.4 °F - 74.8 °F 92% 29.74 in 10.0 mi WSW 11.5 mph 23.0 mph N/A   Drizzle
11:55 PM 77.0 °F - 74.1 °F 91% 29.73 in 10.0 mi SW 15.0 mph - N/A   Mostly Cloudy